Location: Alfortville
(48.8058°N, 2.4204°E)
Time: 11:57:40
(UTC+00:00)

ATLAS 3B R/B - Pass Details

Date: 24 October 2021
Orbit: 989 x 1206 km, 63.8° (Epoch: 25 November)

Event Time Altitude Azimuth Distance (km) Brightness Sun altitude
Rises 17:40:09 0° 252° (WSW) 3,735 7.5 -9.9°
Reaches altitude 10° 17:42:53 10° 260° (W) 2,809 6.5 -10.4°
Maximum altitude 17:49:03 39° 328° (NNW) 1,523 3.8 -11.4°
Drops below altitude 10° 17:55:32 10° 37° (NE) 2,953 4.6 -12.5°
Enters shadow 17:57:13 - 42° (NE) 3,510 5.0 -12.7°
